| time (UTC) | temp F | wind direction | speed MPH | gust MPH | rain 1hr in | rain 24hr in | rain mn in | humidity % | barometer mb |
| 20260904144502 | 61 | 16 | 2.0 | 8.0 | 0.02 | 0.07 | 0.07 | 89 | 1011.3 |
| 20260904143059 | 62 | 16 | 2.0 | 5.0 | 0.02 | 0.07 | 0.07 | 89 | 1011.6 |
| 20260904141557 | 61 | 71 | 4.0 | 9.0 | 0.02 | 0.06 | 0.06 | 89 | 1011.9 |
| 20260904140053 | 62 | 237 | 1.0 | 4.0 | 0.02 | 0.06 | 0.06 | 90 | 1012.2 |
| 20260904134549 | 61 | 289 | 0.0 | 3.0 | 0.02 | 0.06 | 0.06 | 90 | 1012.3 |
| 20260904133046 | 61 | 253 | 1.0 | 5.0 | 0.02 | 0.06 | 0.06 | 90 | 1012.6 |
| 20260904131556 | 60 | 289 | 3.0 | 5.0 | 0.02 | 0.05 | 0.05 | 90 | 1012.8 |
| 20260904130040 | 60 | 13 | 1.0 | 3.0 | 0.02 | 0.04 | 0.04 | 90 | 1013.0 |
| 20260904124538 | 61 | 45 | 0.0 | 2.0 | 0.03 | 0.04 | 0.04 | 90 | 1013.1 |
| 20260904123035 | 61 | 46 | 1.0 | 3.0 | 0.02 | 0.03 | 0.03 | 90 | 1013.2 |
| 20260904121534 | 61 | 50 | 0.0 | 6.0 | 0.02 | 0.02 | 0.02 | 89 | 1013.3 |
| 20260904120037 | 61 | 13 | 1.0 | 4.0 | 0.02 | 0.02 | 0.02 | 90 | 1013.3 |
| 20260904114529 | 61 | 355 | 2.0 | 4.0 | 0.01 | 0.01 | 0.01 | 90 | 1013.4 |
| 20260904113027 | 61 | 360 | 1.0 | 4.0 | 0.01 | 0.01 | 0.01 | 89 | 1013.4 |
| 20260904111528 | 61 | 290 | 2.0 | 7.0 | 0.00 | 0.00 | 0.00 | 89 | 1013.3 |
| 20260904110024 | 61 | 279 | 1.0 | 3.0 | 0.00 | 0.00 | 0.00 | 88 | 1013.4 |
| 20260904104521 | 61 | 142 | 1.0 | 3.0 | 0.00 | 0.00 | 0.00 | 88 | 1013.4 |
| 20260904103020 | 60 | 351 | 1.0 | 3.0 | 0.00 | 0.00 | 0.00 | 88 | 1013.4 |
| 20260904101516 | 60 | 40 | 3.0 | 4.0 | 0.00 | 0.00 | 0.00 | 88 | 1013.6 |
| 20260904100014 | 60 | 40 | 1.0 | 3.0 | 0.00 | 0.00 | 0.00 | 88 | 1013.9 |
| 20260904094511 | 60 | 38 | 1.0 | 5.0 | 0.00 | 0.00 | 0.00 | 88 | 1013.9 |
| 20260904093013 | 59 | 253 | 3.0 | 6.0 | 0.00 | 0.00 | 0.00 | 90 | 1013.9 |
| 20260904091507 | 59 | 200 | 1.0 | 2.0 | 0.00 | 0.00 | 0.00 | 90 | 1013.9 |
| 20260904090005 | 59 | 201 | 0.0 | 3.0 | 0.00 | 0.00 | 0.00 | 90 | 1014.1 |
| 20260904084503 | 58 | 266 | 1.0 | 3.0 | 0.00 | 0.00 | 0.00 | 91 | 1014.2 |
| 20260904083111 | 58 | 265 | 0.0 | 0.0 | 0.00 | 0.00 | 0.00 | 90 | 1014.3 |
| 20260904081555 | 58 | 265 | 0.0 | 0.0 | 0.00 | 0.00 | 0.00 | 90 | 1014.5 |
| 20260904080053 | 58 | 265 | 0.0 | 0.0 | 0.00 | 0.00 | 0.00 | 90 | 1014.7 |
| 20260904074603 | 58 | 265 | 0.0 | 0.0 | 0.00 | 0.00 | 0.00 | 89 | 1014.8 |
| 20260904073050 | 58 | 265 | 0.0 | 0.0 | 0.00 | 0.00 | 0.00 | 89 | 1015.0 |
| 20260904071544 | 59 | 264 | 0.0 | 0.0 | 0.00 | 0.00 | 0.00 | 89 | 1015.1 |
| 20260904070040 | 59 | 264 | 1.0 | 3.0 | 0.00 | 0.00 | 0.00 | 89 | 1015.3 |
| 20260904064538 | 59 | 263 | 0.0 | 2.0 | 0.00 | 0.00 | 0.00 | 88 | 1015.6 |
| 20260904063034 | 60 | 263 | 1.0 | 2.0 | 0.00 | 0.00 | 0.00 | 87 | 1015.7 |
| 20260904061537 | 60 | 263 | 1.0 | 6.0 | 0.00 | 0.00 | 0.00 | 87 | 1015.9 |
| 20260904060029 | 60 | 234 | 0.0 | 2.0 | 0.00 | 0.00 | 0.00 | 87 | 1015.9 |
| 20260904054528 | 61 | 233 | 0.0 | 5.0 | 0.00 | 0.00 | 0.00 | 86 | 1016.0 |
| 20260904053022 | 60 | 248 | 3.0 | 5.0 | 0.00 | 0.00 | 0.00 | 87 | 1016.3 |
| 20260904051520 | 61 | 207 | 1.0 | 9.0 | 0.00 | 0.00 | 0.00 | 87 | 1016.5 |
| 20260904050016 | 61 | 207 | 2.0 | 7.0 | 0.00 | 0.00 | 0.00 | 87 | 1016.6 |
| 20260904044513 | 61 | 219 | 4.0 | 8.0 | 0.00 | 0.00 | 0.00 | 87 | 1016.7 |
| 20260904043015 | 60 | 221 | 4.0 | 8.0 | 0.00 | 0.00 | 0.00 | 89 | 1016.8 |
| 20260904041507 | 60 | 233 | 0.0 | 2.0 | 0.00 | 0.00 | 0.00 | 89 | 1016.7 |
| 20260904040005 | 60 | 232 | 2.0 | 4.0 | 0.00 | 0.00 | 0.00 | 89 | 1017.0 |
| 20260904034504 | 60 | 229 | 0.0 | 2.0 | 0.00 | 0.00 | 0.00 | 89 | 1017.1 |
| 20260904033104 | 60 | 229 | 0.0 | 2.0 | 0.00 | 0.00 | 0.00 | 88 | 1017.1 |
| 20260904031557 | 60 | 229 | 0.0 | 2.0 | 0.00 | 0.00 | 0.00 | 88 | 1017.1 |
| 20260904030054 | 61 | 229 | 1.0 | 2.0 | 0.00 | 0.00 | 0.00 | 87 | 1017.3 |
| 20260904024550 | 61 | 225 | 1.0 | 6.0 | 0.00 | 0.00 | 0.00 | 86 | 1017.5 |
| 20260904023051 | 61 | 230 | 2.0 | 7.0 | 0.00 | 0.00 | 0.00 | 86 | 1017.5 |
| 20260904021545 | 61 | 244 | 4.0 | 6.0 | 0.00 | 0.00 | 0.00 | 86 | 1017.5 |
| 20260904020045 | 61 | 257 | 4.0 | 6.0 | 0.00 | 0.00 | 0.00 | 86 | 1017.7 |
| 20260904014605 | 61 | 228 | 5.0 | 9.0 | 0.00 | 0.00 | 0.00 | 87 | 1017.9 |
| 20260904013042 | 61 | 224 | 3.0 | 6.0 | 0.00 | 0.00 | 0.00 | 86 | 1017.9 |
| 20260904011535 | 61 | 192 | 1.0 | 8.0 | 0.00 | 0.00 | 0.00 | 86 | 1018.1 |
| 20260904010034 | 61 | 243 | 4.0 | 8.0 | 0.00 | 0.00 | 0.00 | 86 | 1018.1 |
| 20260904004534 | 61 | 238 | 3.0 | 6.0 | 0.00 | 0.00 | 0.00 | 86 | 1018.2 |
| 20260904003028 | 61 | 232 | 2.0 | 4.0 | 0.00 | 0.00 | 0.00 | 86 | 1018.3 |
| 20260904001528 | 61 | 223 | 4.0 | 10.0 | 0.00 | 0.00 | 0.00 | 86 | 1018.3 |
| 20260904000024 | 62 | 227 | 4.0 | 9.0 | 0.00 | 0.00 | 0.00 | 86 | 1018.4 |
| 20260903234521 | 61 | 219 | 3.0 | 6.0 | 0.00 | 0.00 | 0.00 | 86 | 1018.5 |
| 20260903233020 | 61 | 219 | 2.0 | 8.0 | 0.00 | 0.00 | 0.00 | 86 | 1018.6 |
| 20260903231518 | 61 | 217 | 2.0 | 11.0 | 0.00 | 0.00 | 0.00 | 85 | 1018.6 |
| 20260903230015 | 62 | 216 | 3.0 | 8.0 | 0.00 | 0.00 | 0.00 | 85 | 1018.6 |
| 20260903224515 | 62 | 234 | 3.0 | 6.0 | 0.00 | 0.00 | 0.00 | 84 | 1018.6 |
| 20260903223011 | 63 | 206 | 2.0 | 6.0 | 0.00 | 0.00 | 0.00 | 83 | 1018.6 |
| 20260903221509 | 63 | 202 | 3.0 | 5.0 | 0.00 | 0.00 | 0.00 | 82 | 1018.8 |
| 20260903220008 | 64 | 207 | 0.0 | 6.0 | 0.00 | 0.00 | 0.00 | 82 | 1019.0 |
| 20260903214506 | 64 | 213 | 1.0 | 5.0 | 0.00 | 0.00 | 0.00 | 81 | 1018.9 |
| 20260903213004 | 64 | 220 | 5.0 | 9.0 | 0.00 | 0.00 | 0.00 | 79 | 1018.8 |
| 20260903211501 | 65 | 192 | 4.0 | 12.0 | 0.00 | 0.00 | 0.00 | 77 | 1018.8 |
| 20260903204559 | 67 | 228 | 5.0 | 10.0 | 0.00 | 0.00 | 0.00 | 73 | 1018.6 |
| 20260903203106 | 69 | 267 | 3.0 | 7.0 | 0.00 | 0.00 | 0.00 | 72 | 1018.8 |
| 20260903201553 | 69 | 174 | 5.0 | 13.0 | 0.00 | 0.00 | 0.00 | 70 | 1018.8 |
| 20260903200051 | 69 | 215 | 5.0 | 10.0 | 0.00 | 0.00 | 0.00 | 71 | 1018.8 |
| 20260903194549 | 67 | 253 | 5.0 | 14.0 | 0.00 | 0.00 | 0.00 | 74 | 1019.0 |
| 20260903193047 | 67 | 229 | 8.0 | 12.0 | 0.00 | 0.00 | 0.00 | 72 | 1019.2 |
| 20260903191542 | 68 | 223 | 8.0 | 16.0 | 0.00 | 0.00 | 0.00 | 73 | 1019.3 |
| 20260903190041 | 68 | 206 | 5.0 | 9.0 | 0.00 | 0.00 | 0.00 | 74 | 1019.2 |
| 20260903184538 | 69 | 218 | 7.0 | 12.0 | 0.00 | 0.00 | 0.00 | 72 | 1019.4 |
| 20260903183035 | 69 | 237 | 7.0 | 11.0 | 0.00 | 0.00 | 0.00 | 70 | 1019.5 |
| 20260903181532 | 70 | 173 | 5.0 | 11.0 | 0.00 | 0.00 | 0.00 | 71 | 1019.5 |
| 20260903180035 | 69 | 254 | 5.0 | 10.0 | 0.00 | 0.00 | 0.00 | 71 | 1019.6 |
| 20260903174525 | 71 | 215 | 6.0 | 12.0 | 0.00 | 0.00 | 0.00 | 67 | 1019.7 |
| 20260903173020 | 69 | 186 | 4.0 | 9.0 | 0.00 | 0.00 | 0.00 | 69 | 1019.8 |
| 20260903171526 | 69 | 173 | 5.0 | 8.0 | 0.00 | 0.00 | 0.00 | 70 | 1019.9 |
| 20260903170031 | 69 | 250 | 5.0 | 9.0 | 0.00 | 0.00 | 0.00 | 71 | 1019.9 |
| 20260903164509 | 69 | 249 | 2.0 | 9.0 | 0.00 | 0.00 | 0.00 | 73 | 1020.1 |
| 20260903163106 | 68 | 205 | 4.0 | 9.0 | 0.00 | 0.00 | 0.00 | 72 | 1020.5 |
| 20260903161503 | 68 | 224 | 7.0 | 12.0 | 0.00 | 0.00 | 0.00 | 71 | 1020.6 |
| 20260903160004 | 68 | 266 | 4.0 | 7.0 | 0.00 | 0.00 | 0.00 | 73 | 1020.6 |
| 20260903154600 | 67 | 211 | 4.0 | 7.0 | 0.00 | 0.00 | 0.00 | 74 | 1020.7 |
| 20260903154502 | 67 | 213 | 4.0 | 7.0 | 0.00 | 0.00 | 0.00 | 74 | 1020.7 |
| 20260903153058 | 67 | 213 | 5.0 | 10.0 | 0.00 | 0.00 | 0.00 | 74 | 1020.7 |
| 20260903151557 | 68 | 228 | 5.0 | 9.0 | 0.00 | 0.00 | 0.00 | 74 | 1020.8 |
| 20260903150108 | 69 | 185 | 4.0 | 8.0 | 0.00 | 0.00 | 0.00 | 73 | 1020.8 |